Weather History for Auckland Airport, New Zealand

Change the Weather History Date:

Sunday, March 3, 2013

  Actual Average Record
Temperature  
Mean Temperature 68 °F -  
Max Temperature 75 °F 70 °F - ()
Min Temperature 62 °F 57 °F - ()
Cooling Degree Days 4    
Growing Degree Days 18 (Base 50)    
Moisture  
Dew Point 62 °F    
Average Humidity 82    
Maximum Humidity 94    
Minimum Humidity 57    
Precipitation  
Precipitation 0.00 in 0.11 in - ()
Sea Level Pressure  
Sea Level Pressure 29.78 in    
Wind  
Wind Speed 8 mph ()    
Max Wind Speed 18 mph    
Max Gust Speed -    
Visibility 5.9 miles    
Events Rain    
T = Trace of Precipitation, MM = Missing Value Source: Averaged Metar Reports

Daily Weather History Graph

Daily Weather History Graph

Search for Another Location

Airport:

Trip Planner

Search our weather history database for the weather conditions in past years. The results will help you decide how hot, cold, wet, or windy it might be!

Date:

Astronomy

Mar. 03, 2013 Rise Set
Actual Time 7:07 AM NZDT 7:57 PM NZDT
Civil Twilight 6:41 AM NZDT 8:23 PM NZDT
Nautical Twilight 6:09 AM NZDT 8:54 PM NZDT
Astronomical Twilight 5:37 AM NZDT 9:26 PM NZDT
Moon 11:03 PM NZDT (3/3) 12:29 PM NZDT (3/3)
Length of Visible Light 13h 42m
Length of Day
12h 49m
Waning Gibbous, 72% of the Moon is Illuminated
Mar 3
Waning Gibbous
Mar 5
Last Quarter
Mar 12
New
Mar 20
First Quarter
Mar 27
Full

Hourly Weather History & Observations

Time (NZDT) Temp. Dew Point Humidity Pressure Visibility Wind Dir Wind Speed Gust Speed Precip Events Conditions
12:00 AM 66.2 °F 60.8 °F 83% 29.83 in 6.2 mi WSW 9.2 mph - N/A   Partly Cloudy
1:00 AM 64.4 °F 60.8 °F 88% 29.80 in 6.2 mi WSW 8.1 mph - N/A   Scattered Clouds
2:00 AM 64.4 °F 60.8 °F 88% 29.80 in 6.2 mi West 10.4 mph - N/A   Scattered Clouds
3:00 AM 64.4 °F 60.8 °F 88% 29.80 in 6.2 mi WSW 9.2 mph - N/A   Partly Cloudy
4:00 AM 64.4 °F 60.8 °F 88% 29.80 in 6.2 mi West 11.5 mph - N/A   Partly Cloudy
5:00 AM 64.4 °F 59.0 °F 83% 29.77 in 6.2 mi NW 3.5 mph - N/A   Partly Cloudy
6:00 AM 64.4 °F 59.0 °F 83% 29.77 in 6.2 mi NNW 4.6 mph - N/A   Partly Cloudy
7:00 AM 62.6 °F 60.8 °F 94% 29.77 in 6.2 mi NNW 4.6 mph - N/A   Partly Cloudy
8:00 AM 64.4 °F 60.8 °F 88% 29.77 in 6.2 mi NNW 5.8 mph - N/A   Partly Cloudy
9:00 AM 68.0 °F 62.6 °F 83% 29.77 in 6.2 mi NNW 6.9 mph - N/A   Partly Cloudy
10:00 AM 68.0 °F 64.4 °F 88% 29.77 in 3.7 mi NW 6.9 mph - N/A Rain Light Rain
10:10 AM 64.4 °F 62.6 °F 94% 29.77 in 3.1 mi West 10.4 mph - N/A Rain Rain Showers
11:00 AM 64.4 °F 62.6 °F 94% 29.77 in 3.1 mi WSW 8.1 mph - N/A Rain Light Rain
11:10 AM 64.4 °F 62.6 °F 94% 29.77 in 6.2 mi SW 4.6 mph - N/A   Mostly Cloudy
12:00 PM 66.2 °F 64.4 °F 94% 29.77 in 6.2 mi SSE 2.3 mph - N/A   Scattered Clouds
1:00 PM 69.8 °F 62.6 °F 78% 29.77 in 6.2 mi SW 4.6 mph - N/A   Scattered Clouds
2:00 PM 75.2 °F 60.8 °F 61% 29.74 in 6.2 mi West 9.2 mph - N/A   Scattered Clouds
3:00 PM 75.2 °F 62.6 °F 65% 29.77 in 6.2 mi SW 18.4 mph - N/A   Scattered Clouds
4:00 PM 75.2 °F 59.0 °F 57% 29.74 in 6.2 mi WSW 12.7 mph - N/A   Partly Cloudy
5:00 PM 73.4 °F 60.8 °F 65% 29.74 in 6.2 mi SW 13.8 mph - N/A   Partly Cloudy
6:00 PM 73.4 °F 62.6 °F 69% 29.74 in 6.2 mi WSW 12.7 mph - N/A   Partly Cloudy
7:00 PM 71.6 °F 62.6 °F 73% 29.77 in 6.2 mi WSW 11.5 mph - N/A   Partly Cloudy
8:00 PM 68.0 °F 62.6 °F 83% 29.77 in 6.2 mi SW 10.4 mph - N/A   Mostly Cloudy
9:00 PM 68.0 °F 62.6 °F 83% 29.80 in 6.2 mi SW 10.4 mph - N/A   Mostly Cloudy
10:00 PM 68.0 °F 62.6 °F 83% 29.83 in 6.2 mi SSW 6.9 mph - N/A   Scattered Clouds
11:00 PM 66.2 °F 62.6 °F 88% 29.83 in - SW 8.1 mph - N/A   Clear